Temp_Advection
nan nan nan nan nan nan nan nan nan nan nan nan nan nan nan nan nan nan nan nan nan nan nan nan nan nan nan nan nan nan nan nan nan nan nan nan nan nan nan nan nan nan nan
nan -0 -0 -0 -0 -0 -0 -0 -0 -0 -0 -0 0 0 -0 -0 -0 0 0 1 0 -0 -0 -0 -0 -0 -0 -0 -0 -0 -0 -0 -0 -1 -0 -0 -0 -0 -0 -0 -0 0 nan
nan -0 -0 -0 -0 -0 -0 -0 -0 -0 0 0 -0 -0 -0 -0 0 0 0 1 1 -0 -0 -0 -0 -0 -0 -0 -0 -0 -0 -0 -0 -0 -1 -0 -0 -0 -0 -0 0 0 nan
nan -0 -0 -0 -0 -0 -0 -0 -0 -0 -0 -0 -0 0 0 -0 0 -0 0 1 0 -0 -0 -0 -0 -0 -0 -0 -0 -0 -0 -0 -0 -0 -0 -0 -0 -0 -0 -0 -0 -0 nan
nan -0 -0 -0 -0 -0 -0 -0 -0 -0 0 0 0 0 0 -0 0 0 0 1 0 -0 -0 -0 -0 -1 -0 -0 -0 -0 -0 -0 -0 -0 -0 -0 -0 -0 -0 -0 -0 0 nan
nan -0 -0 -0 -0 -0 -0 -0 -0 -0 0 0 -0 0 0 -0 -0 -0 0 0 -0 -0 -0 -0 -0 -0 -0 -0 -0 -0 -0 -0 -0 -0 -0 -1 -0 -0 -0 -0 0 0 nan
nan -0 -0 -0 -0 -0 -0 -0 -0 -0 -0 -0 -0 -0 -0 -0 -0 0 1 -0 -0 -0 -0 -0 -0 -0 0 -0 -0 -0 -0 -0 -0 -0 -1 -1 -1 -0 -0 -0 -0 -0 nan
nan -0 -0 -0 -0 -0 -0 -0 -0 -0 -0 -0 -0 -1 -0 -0 -0 -0 -1 -1 -0 -0 -0 -1 -0 -1 -0 0 0 -0 -0 -0 -0 -0 -1 -1 -1 -0 -0 -0 -0 0 nan
nan -0 -0 -0 -0 -0 -0 -0 -0 -0 0 0 -0 -0 -0 0 0 -1 -3 -2 -1 -1 -1 -0 -1 -0 -1 -0 0 -0 -0 -0 -0 -0 -0 -0 -0 -0 -0 -0 0 0 nan
nan -0 -0 -0 -0 -0 -0 0 0 0 0 0 0 0 0 -0 -0 -1 -1 -1 -1 -1 -0 0 -1 -0 -0 -0 0 0 -0 -0 -0 -0 -0 -0 -0 -0 -0 -0 0 -0 nan
nan -0 -0 -0 -0 0 0 1 1 0 0 0 1 1 0 -0 -1 -0 1 0 -0 -0 -0 -1 -0 -0 -0 -0 0 0 0 -0 0 -0 -0 -0 -0 -0 -0 -0 0 -0 nan
nan -0 -0 -0 0 0 0 0 -0 -0 -0 -1 -1 -1 -1 -2 -1 0 -0 1 1 1 -0 -1 -0 -0 -0 0 0 0 0 0 0 0 -0 -0 -0 -0 -0 0 0 0 nan
nan -0 -0 -0 0 0 -0 -0 -0 -1 -1 -1 -2 -2 -3 -3 -1 -1 -2 -0 1 0 -0 -1 -1 -0 -0 -0 -0 0 0 0 0 0 0 0 -0 -0 -0 0 0 -0 nan
nan -0 -0 0 0 -0 -0 -0 -1 -1 -1 -1 -1 -2 -3 -1 -1 -0 -1 -1 -1 -0 -1 -1 -1 -1 -0 -0 0 0 0 0 0 0 -0 0 0 0 0 0 0 0 nan
nan -0 -0 -0 -0 -0 -0 -0 -0 -0 -0 -0 -0 -0 1 0 1 1 0 1 1 0 -0 -1 -1 -1 -1 -0 -0 0 1 1 1 0 0 0 0 -0 -0 0 0 0 nan
nan -0 -0 0 -0 -0 -0 -0 -0 0 0 0 1 2 2 1 3 2 1 1 1 -0 -2 -1 -1 -1 -1 -1 -0 0 0 0 0 0 0 0 0 -0 -0 -0 -0 -0 nan
nan -0 0 0 -0 -0 -0 -0 0 -0 0 0 1 2 1 1 1 1 0 0 -1 -2 -2 -1 -0 -0 -0 -0 0 0 1 1 1 1 0 0 0 -0 -0 -0 -0 -0 nan
nan 0 -0 -0 -0 -0 0 0 0 0 0 1 1 1 -0 -0 1 1 -0 -3 -4 -4 -2 0 1 1 0 0 1 1 1 1 1 1 1 0 0 0 -0 -0 -0 -0 nan
nan -0 -0 -0 -0 0 0 0 0 1 0 0 0 -1 -1 -0 -0 -1 -3 -5 -3 -2 -0 2 2 2 2 1 1 1 1 1 1 2 1 0 0 0 -0 -0 -0 0 nan
nan -0 -0 0 0 0 0 0 0 0 -0 -0 -1 -1 -1 -1 -2 -2 -2 -2 -2 -1 0 1 2 2 2 1 1 1 1 1 1 1 1 1 0 0 -0 -0 -0 0 nan
nan -0 -0 0 0 0 -0 -0 -0 -0 -0 -0 -0 -0 -0 -1 -1 -1 -1 -1 -1 0 1 0 0 1 0 1 1 0 0 1 1 1 1 1 0 0 -0 -0 -0 0 nan
nan -0 -0 0 -0 -0 -0 -0 -0 -0 -0 -0 0 0 0 -0 -0 -0 0 0 0 1 1 0 0 0 0 1 1 0 0 1 1 1 1 1 1 0 0 -0 -0 -0 nan
nan -0 -0 -0 -0 -0 -0 0 -0 -0 -0 -0 -0 -0 -0 -1 -0 -0 0 0 1 0 0 0 0 0 1 1 1 0 0 1 1 1 1 1 1 1 0 0 -0 -0 nan
nan -0 0 0 0 0 0 -0 -0 -0 -0 -0 -0 -0 -0 -0 -0 -0 0 0 -0 -0 0 0 0 0 1 1 1 1 1 1 1 1 1 1 0 1 1 1 0 0 nan
nan 0 -0 0 0 0 0 -0 -0 -0 -0 -0 -0 -0 -0 -0 -0 -0 -0 -0 -0 0 0 0 0 1 1 1 0 1 0 0 0 0 -0 0 0 0 0 1 1 1 nan
nan nan nan nan nan nan nan nan nan nan nan nan nan nan nan nan nan nan nan nan nan nan nan nan nan nan nan nan nan nan nan nan nan nan nan nan nan nan nan nan nan nan nan
Wind_Speed
15 17 18 20 20 22 23 25 26 27 28 27 27 28 28 30 31 27 32 39 39 38 34 27 24 23 25 23 22 22 22 20 24 26 21 17 17 13 15 13 15 14 13
15 17 19 20 21 23 25 25 26 28 27 27 27 28 30 31 31 28 35 52 40 33 26 24 24 24 24 22 21 23 23 21 22 25 21 18 17 14 14 14 14 15 16
16 17 20 21 22 24 25 26 27 28 27 28 28 29 30 32 31 34 47 54 34 27 26 26 26 24 24 23 22 22 22 22 21 22 25 21 18 15 14 11 16 15 15
16 17 20 22 22 24 25 25 27 27 27 29 28 29 30 34 31 39 51 48 30 29 28 26 27 25 24 23 22 22 20 22 23 23 25 22 20 13 14 14 14 14 17
16 18 20 21 21 24 25 26 26 26 27 30 30 30 32 31 33 44 52 43 35 33 32 29 24 24 22 21 19 19 19 20 23 23 22 17 17 16 17 15 16 16 16
16 18 19 21 21 23 24 25 26 28 29 31 31 31 32 34 36 45 52 38 32 36 37 30 26 24 22 24 20 18 16 17 20 22 25 22 19 15 15 19 18 20 21
16 17 19 20 20 22 23 26 29 29 30 30 32 32 34 33 40 49 47 34 32 35 37 30 28 26 24 27 25 25 26 27 27 28 29 28 25 18 15 19 26 20 18
16 17 18 20 20 22 23 26 27 29 30 31 32 33 36 35 42 45 40 35 36 36 30 31 31 35 31 27 24 22 20 17 16 19 23 23 25 22 19 18 25 18 15
15 17 17 19 20 21 24 26 25 27 30 30 30 32 34 35 38 35 38 39 40 38 34 37 33 31 25 25 21 17 16 11 8 12 17 19 20 19 20 17 21 21 20
14 15 15 17 18 20 21 23 23 24 28 31 33 33 33 35 35 35 41 43 43 42 39 38 37 29 24 23 20 15 12 12 11 12 7 15 18 20 18 17 22 19 18
12 13 14 16 16 17 19 23 27 30 32 35 37 37 39 40 42 42 43 46 46 45 44 39 36 30 23 22 21 16 13 11 4 2 9 15 15 14 17 16 19 14 17
11 12 14 15 16 18 20 26 30 33 37 39 40 42 44 45 45 47 49 48 47 46 44 41 34 31 25 21 22 18 15 9 4 2 2 8 12 14 15 19 19 17 11
13 12 14 13 15 20 25 28 31 33 36 38 41 44 47 48 48 49 52 51 50 48 41 37 34 35 29 21 23 24 17 14 9 5 3 6 9 12 14 16 19 17 14
10 10 11 13 12 15 20 25 27 30 33 36 39 42 45 47 49 50 52 52 52 50 46 43 41 38 35 28 25 26 25 18 13 10 2 6 18 13 17 20 23 18 16
8 7 9 10 12 13 16 20 25 26 30 34 36 35 42 47 49 47 49 49 51 51 45 44 45 45 42 38 30 27 27 23 19 13 8 1 6 19 14 17 17 19 18
5 8 9 10 11 13 15 17 19 24 27 32 35 32 39 41 46 49 53 53 54 54 54 48 46 46 45 42 36 30 29 25 23 16 10 5 6 15 14 13 16 20 20
6 6 6 7 10 14 16 18 21 22 24 29 34 33 39 42 46 49 53 56 57 59 56 52 49 48 46 43 37 33 33 30 24 20 11 5 7 12 16 15 15 18 17
8 8 8 10 11 12 15 17 19 22 26 30 33 34 40 44 46 49 53 56 62 63 60 54 53 51 47 43 39 36 34 33 30 26 16 7 7 12 15 16 16 17 16
3 2 5 8 11 12 14 16 19 22 25 29 34 35 39 42 45 48 52 57 57 58 60 59 57 55 49 43 40 36 35 34 34 32 25 13 8 11 14 11 13 16 14
4 3 5 6 8 10 13 16 18 21 23 26 31 35 38 41 46 49 51 54 56 57 57 59 58 55 53 47 42 40 38 36 35 34 30 19 9 8 11 11 11 14 14
1 3 4 5 7 9 12 14 17 19 22 24 27 31 34 38 41 44 47 50 52 54 56 56 56 55 53 50 46 42 40 36 34 32 30 22 13 10 8 8 8 9 11
1 1 3 4 6 8 10 13 15 18 20 23 25 28 31 35 38 41 44 47 49 50 52 54 54 54 53 50 48 45 41 37 33 30 29 25 19 11 7 7 6 6 8
3 2 2 4 5 7 9 11 13 16 18 20 23 26 30 33 35 38 40 42 46 48 50 52 53 52 52 49 47 44 43 36 31 28 27 27 23 19 11 9 8 6 6
4 4 4 3 4 6 7 9 12 14 16 19 21 24 26 29 32 33 36 39 43 45 48 50 52 51 50 50 47 44 42 38 30 28 25 25 24 22 20 15 11 7 6
6 6 5 5 5 6 7 9 10 12 14 16 19 21 23 25 28 31 33 36 39 42 44 47 49 50 51 48 47 44 41 40 37 35 28 26 26 26 26 22 18 14 11
6 7 6 7 6 6 7 8 9 11 12 14 16 19 21 23 25 28 31 33 36 38 41 44 46 47 49 50 47 45 43 41 40 36 39 35 30 30 29 28 25 22 19
Wind_Direction
360 354 351 350 350 347 346 343 345 343 343 344 341 342 341 337 336 326 316 322 327 322 319 314 305 300 294 286 280 275 273 271 275 281 281 279 282 277 261 227 215 238 248
0 358 348 350 351 351 346 348 348 344 348 345 344 343 340 339 339 321 324 334 330 326 325 318 310 305 296 291 282 273 270 267 268 274 280 277 271 274 266 230 221 226 239
1 359 350 353 357 351 350 352 349 347 350 349 347 344 343 343 328 327 336 341 338 333 330 319 312 306 299 293 283 277 271 265 263 265 270 276 273 266 266 242 238 226 231
3 1 356 356 359 349 353 355 348 353 351 349 347 346 344 345 325 334 338 342 343 340 330 319 312 305 301 295 285 280 273 266 263 263 269 267 270 260 259 252 238 220 218
5 3 360 356 359 351 357 352 352 354 353 351 350 349 347 346 334 337 337 341 349 342 336 330 324 313 305 300 292 284 277 267 263 266 267 266 263 256 246 246 238 225 220
9 6 360 359 0 357 359 353 356 357 357 354 351 352 350 345 339 335 335 338 346 338 344 340 334 330 317 307 301 281 267 263 259 258 257 257 255 257 252 242 242 230 234
12 9 2 2 4 1 358 358 359 359 357 355 356 355 351 350 339 336 340 350 350 344 339 338 339 334 338 324 308 297 284 270 261 257 252 246 249 241 260 266 224 227 231
16 12 6 7 8 5 4 4 4 4 359 359 360 357 350 353 343 342 344 356 353 347 347 351 347 337 308 337 316 304 295 282 261 249 249 250 243 241 245 263 216 221 222
20 14 10 12 11 11 11 5 11 8 4 6 6 358 359 359 352 352 358 0 354 353 354 356 349 348 342 332 329 318 307 292 265 256 244 248 238 229 234 241 202 199 206
23 16 17 21 15 19 14 10 18 21 22 25 22 16 13 11 11 13 4 359 352 355 356 358 356 357 355 353 348 338 321 298 269 244 204 218 231 233 230 225 195 198 196
29 21 28 31 20 28 26 25 32 32 29 27 28 25 23 21 19 24 17 3 357 359 359 2 2 3 5 11 8 0 345 336 358 226 226 226 210 226 221 196 183 200 200
35 26 37 28 30 32 34 35 33 30 27 26 24 26 27 23 23 25 27 13 6 8 5 2 10 11 10 23 25 17 18 16 9 17 216 217 209 207 200 194 194 198 203
44 30 31 51 17 28 30 27 24 24 21 19 18 22 24 22 21 26 28 22 22 18 11 6 15 20 18 25 33 34 28 36 39 25 74 58 192 190 186 183 191 193 199
36 45 27 29 28 8 10 14 18 18 16 13 14 16 20 15 18 22 25 19 21 21 16 14 18 23 24 30 34 41 39 37 42 46 347 33 165 166 174 184 189 194 193
27 55 48 26 23 17 6 8 6 12 11 10 13 13 16 15 18 28 30 19 20 23 16 13 16 20 20 24 31 38 41 42 46 57 55 150 94 156 170 184 186 186 182
55 33 49 25 23 16 12 17 7 14 11 11 16 17 28 23 25 28 34 33 30 28 25 16 16 18 19 21 24 31 39 42 44 47 64 141 141 174 164 166 180 184 184
81 51 34 35 33 21 9 14 11 21 20 18 20 21 32 29 26 27 32 35 33 31 25 17 16 17 21 23 25 30 34 37 44 50 72 79 165 170 174 168 171 181 185
46 33 25 32 35 29 20 16 16 15 17 20 24 25 28 31 29 27 29 31 32 32 28 19 18 19 23 25 27 30 37 38 44 47 64 77 154 158 172 178 183 188 195
129 108 46 23 30 24 23 21 22 21 21 20 22 28 28 30 30 29 31 34 31 28 28 26 24 24 27 31 32 35 38 39 41 46 58 73 141 158 179 185 198 190 197
76 52 59 25 23 25 23 25 26 25 24 23 22 23 24 27 28 29 30 34 33 32 31 30 27 26 28 32 35 37 39 40 46 51 57 75 105 148 173 175 165 181 200
50 39 32 23 25 25 24 24 24 24 25 26 26 25 26 28 29 28 29 33 32 32 32 32 28 28 27 30 35 39 40 40 47 52 60 74 93 105 140 164 179 186 199
210 347 6 12 14 20 21 21 23 25 24 25 26 27 28 30 29 30 29 32 34 34 33 33 31 29 29 29 33 36 40 40 46 50 61 70 87 102 124 130 151 171 192
222 275 322 346 359 7 11 10 17 20 23 24 25 27 28 30 30 29 30 30 33 32 33 34 34 32 31 33 32 37 40 40 45 50 61 69 79 87 105 121 134 145 153
233 253 285 325 340 353 358 4 10 14 17 20 23 26 28 29 30 30 30 29 33 32 32 34 35 36 34 33 35 36 43 43 46 56 61 69 74 80 88 100 116 138 159
241 257 279 296 320 337 345 357 5 7 12 15 21 23 26 28 29 30 31 30 31 33 32 32 35 35 38 37 35 39 42 45 45 52 60 68 74 77 77 79 93 108 120
249 257 271 285 305 323 341 348 354 0 6 11 14 18 22 25 26 28 29 31 31 32 33 33 32 35 36 38 39 39 42 47 51 51 56 61 67 74 77 79 78 84 96
Height
1559 1556 1553 1549 1545 1541 1537 1532 1527 1521 1515 1510 1505 1499 1494 1488 1482 1475 1468 1462 1454 1447 1442 1437 1433 1431 1428 1426 1424 1423 1422 1423 1421 1418 1419 1419 1420 1420 1420 1422 1424 1425 1427
1559 1557 1553 1549 1545 1540 1536 1531 1526 1520 1515 1509 1504 1498 1492 1486 1480 1472 1465 1457 1447 1439 1435 1431 1428 1425 1422 1420 1418 1417 1416 1416 1416 1414 1414 1415 1416 1417 1417 1418 1421 1423 1424
1560 1557 1552 1548 1544 1540 1535 1530 1525 1519 1514 1509 1504 1497 1491 1485 1476 1469 1461 1451 1442 1436 1431 1427 1423 1419 1416 1414 1412 1411 1410 1410 1410 1410 1409 1410 1411 1412 1413 1414 1415 1418 1420
1560 1557 1553 1548 1544 1540 1535 1530 1525 1519 1514 1509 1503 1497 1490 1483 1474 1467 1457 1447 1439 1433 1428 1423 1418 1414 1410 1408 1406 1404 1403 1403 1404 1404 1403 1404 1406 1408 1409 1411 1412 1414 1417
1560 1557 1553 1549 1545 1540 1535 1530 1525 1520 1515 1509 1502 1496 1489 1483 1473 1464 1454 1444 1436 1429 1423 1417 1412 1408 1404 1401 1399 1397 1396 1396 1396 1397 1398 1400 1401 1403 1405 1406 1408 1411 1412
1561 1558 1554 1550 1546 1541 1536 1531 1526 1521 1515 1509 1502 1496 1489 1481 1472 1462 1452 1441 1433 1426 1418 1412 1407 1402 1398 1395 1392 1390 1389 1388 1388 1390 1391 1393 1395 1398 1400 1402 1404 1405 1408
1561 1558 1555 1551 1546 1542 1537 1532 1527 1521 1516 1509 1503 1496 1489 1481 1470 1458 1446 1437 1430 1424 1415 1408 1403 1398 1393 1389 1385 1382 1380 1379 1380 1382 1383 1386 1389 1393 1395 1395 1397 1400 1401
1562 1559 1555 1552 1548 1543 1539 1534 1528 1523 1517 1510 1503 1497 1488 1480 1469 1455 1445 1436 1428 1420 1413 1405 1399 1392 1385 1381 1377 1373 1371 1370 1371 1373 1376 1379 1382 1387 1391 1391 1391 1397 1400
1562 1560 1556 1552 1549 1545 1541 1536 1531 1525 1519 1512 1505 1498 1488 1479 1469 1457 1445 1435 1427 1419 1411 1404 1397 1387 1381 1376 1371 1368 1365 1364 1365 1368 1370 1373 1377 1380 1385 1388 1388 1393 1396
1563 1561 1557 1554 1551 1547 1544 1539 1533 1528 1522 1514 1506 1499 1491 1481 1471 1459 1448 1437 1428 1417 1408 1401 1394 1386 1379 1373 1368 1364 1362 1361 1361 1363 1365 1368 1372 1376 1380 1383 1387 1390 1394
1564 1562 1559 1556 1553 1549 1546 1541 1536 1529 1523 1516 1509 1501 1492 1482 1471 1459 1447 1438 1429 1416 1407 1399 1392 1385 1378 1373 1368 1363 1361 1359 1358 1360 1362 1365 1368 1372 1375 1380 1385 1389 1391
1565 1563 1560 1559 1556 1552 1548 1543 1538 1531 1525 1518 1511 1502 1493 1483 1474 1461 1449 1440 1431 1418 1409 1403 1394 1386 1379 1374 1368 1365 1361 1359 1359 1360 1361 1364 1366 1370 1373 1379 1383 1387 1392
1566 1565 1562 1560 1558 1554 1550 1546 1540 1535 1529 1522 1515 1506 1496 1486 1476 1464 1451 1442 1432 1421 1415 1407 1397 1389 1382 1375 1370 1366 1363 1361 1360 1360 1360 1362 1365 1368 1373 1377 1382 1386 1391
1567 1566 1565 1563 1561 1558 1553 1549 1544 1539 1533 1526 1519 1511 1501 1491 1480 1468 1455 1445 1436 1425 1417 1407 1399 1391 1384 1378 1372 1367 1365 1363 1362 1361 1361 1361 1365 1369 1372 1376 1380 1385 1390
1568 1567 1566 1564 1562 1559 1556 1552 1548 1543 1537 1531 1524 1517 1505 1495 1487 1478 1464 1453 1442 1432 1422 1412 1401 1392 1385 1380 1375 1371 1367 1365 1364 1363 1363 1364 1365 1369 1373 1377 1381 1385 1389
1570 1568 1567 1565 1563 1560 1557 1554 1551 1546 1541 1535 1528 1522 1512 1505 1496 1484 1470 1460 1449 1436 1424 1415 1406 1398 1391 1386 1380 1375 1371 1368 1366 1366 1365 1366 1369 1372 1374 1378 1381 1385 1389
1571 1570 1568 1566 1564 1562 1559 1555 1552 1548 1543 1538 1532 1526 1516 1508 1499 1488 1475 1465 1454 1441 1429 1421 1413 1405 1398 1392 1387 1381 1376 1373 1370 1368 1367 1368 1370 1372 1376 1379 1383 1386 1390
1572 1571 1569 1567 1565 1563 1560 1557 1554 1549 1544 1540 1536 1529 1519 1511 1502 1492 1481 1470 1455 1444 1437 1429 1420 1412 1405 1398 1392 1386 1380 1376 1372 1370 1369 1369 1371 1374 1377 1381 1384 1387 1390
1572 1572 1571 1570 1567 1565 1563 1560 1556 1552 1547 1542 1537 1531 1523 1515 1507 1498 1487 1475 1465 1456 1446 1437 1429 1420 1411 1404 1398 1391 1386 1381 1376 1373 1371 1371 1373 1376 1379 1382 1385 1388 1391
1573 1573 1571 1570 1569 1566 1564 1561 1557 1554 1550 1546 1540 1534 1527 1518 1509 1500 1493 1483 1475 1467 1457 1447 1439 1429 1419 1411 1403 1396 1390 1385 1380 1376 1374 1375 1377 1379 1381 1384 1386 1389 1391
1573 1573 1572 1571 1569 1567 1565 1563 1560 1557 1553 1549 1544 1539 1533 1525 1517 1510 1502 1492 1484 1476 1467 1458 1449 1439 1429 1419 1410 1402 1397 1392 1387 1383 1380 1379 1380 1382 1383 1385 1388 1390 1392
1574 1573 1573 1572 1570 1569 1567 1565 1562 1559 1556 1552 1548 1543 1538 1531 1524 1517 1510 1502 1493 1486 1478 1469 1459 1448 1439 1428 1419 1411 1404 1399 1394 1391 1387 1385 1384 1385 1386 1388 1389 1391 1393
1574 1573 1572 1571 1570 1569 1568 1565 1563 1560 1558 1554 1551 1546 1541 1536 1530 1524 1517 1510 1501 1494 1487 1478 1469 1460 1450 1441 1431 1422 1413 1408 1404 1400 1395 1392 1389 1388 1389 1390 1391 1392 1393
1573 1572 1572 1572 1571 1569 1567 1566 1565 1563 1560 1557 1554 1550 1545 1540 1535 1530 1524 1518 1510 1502 1495 1487 1478 1471 1461 1452 1444 1435 1426 1420 1413 1407 1403 1399 1396 1394 1392 1392 1392 1393 1394
1572 1572 1572 1571 1570 1569 1568 1568 1566 1564 1561 1558 1555 1552 1549 1545 1540 1535 1530 1524 1517 1510 1503 1495 1488 1480 1472 1464 1456 1448 1440 1431 1425 1417 1411 1406 1402 1399 1398 1397 1395 1395 1396
1571 1571 1571 1570 1570 1569 1569 1568 1566 1564 1562 1560 1557 1554 1551 1548 1544 1539 1534 1529 1523 1517 1511 1504 1497 1490 1483 1474 1467 1459 1452 1443 1436 1430 1422 1416 1410 1406 1404 1402 1401 1400 1399